Skip Page Navigation
NASA JPL Caltech
NASA Logo - Jet Propulsion Laboratory + View the NASA Portal
+ Near-Earth Object (NEO) Program
Search JPL
JPL Home Earth Solar System Stars & Galaxies Technology
JPL Solar System Dynamics
BODIES ORBITS EPHEMERIDES TOOLS PHYSICAL DATA DISCOVERY FAQ SITE MAP
JPL Small-Body Database Browser
Search: [ help ]  
7798 (1996 CL)
Classification: Main-belt Asteroid          SPK-ID: 2007798
Ephemeris | Orbit Diagram | Orbital Elements | Physical Parameters | Discovery Circumstances | Close-Approach Data ]

[ show orbit diagram ]
Orbital Elements at Epoch 2456800.5 (2014-May-23.0) TDB
Reference: JPL 6 (heliocentric ecliptic J2000)
 Element Value Uncertainty (1-sigma)   Units 
e .1291175234066881 6.8216e-08  
a 2.47850398393922 2.0313e-08 AU
q 2.158485687779378 1.6947e-07 AU
i 5.549960408790996 6.0334e-06 deg
node 98.47922636319808 7.7226e-05 deg
peri 336.2846742328903 8.308e-05 deg
M 311.7086384505137 3.1419e-05 deg
tp 2456991.683236040532
(2014-Nov-30.18323604)
0.00012562 JED
period 1425.223119958265
3.90
1.7521e-05
4.797e-08
d
yr
n .2525920292470009 3.1052e-09 deg/d
Q 2.798522280099062 2.2935e-08 AU
  Orbit Determination Parameters
   # obs. used (total)      986  
   data-arc span      7861 days (21.52 yr)  
   first obs. used      1992-02-23  
   last obs. used      2013-09-01  
   planetary ephem.      DE431  
   SB-pert. ephem.      SB431-BIG16  
   condition code      0  
   fit RMS      .46292  
   data source      ORB  
   producer      Otto Matic  
   solution date      2014-Jun-09 19:05:08  

Additional Information
 Earth MOID = 1.17416 AU 
 T_jup = 3.462 
[ show covariance matrix ]

Ephemeris | Orbit Diagram | Orbital Elements | Physical Parameters | Discovery Circumstances | Close-Approach Data ]

Physical Parameter Table
Parameter Symbol Value Units Sigma Reference Notes
absolute magnitude H 13.5 mag n/a MPO267739  

7798 (1996 CL)          Discovered 1996-Feb-01 by Beijing Schmidt CCD Asteroid Program at Xinglong
Reference: DISCOVERY.DBLast Updated: 2003-08-29

[ show close-approach data ]
Alternate Designations
 1996 CL = 1992 DK13 
Ephemeris | Orbit Diagram | Orbital Elements | Physical Parameters | Discovery Circumstances | Close-Approach Data ]
ABOUT SSD CREDITS/AWARDS PRIVACY/COPYRIGHT GLOSSARY LINKS
FirstGov 2014-Jul-29 10:45 UT
(server date/time)  
NASA Home Page
Site Manager:   Donald K. Yeomans
Webmaster  Alan B. Chamberlin